GW5240 Weather Reports


time (UTC)temp
C
wind
direction
speed
KPH
gust
KPH
rain 1hr
cm
rain 24hr
cm
rain mn
cm
humidity
%
barometer
mb
20260831075727 21 168 0.0 0.0 0.00 0.00 0.00 94 1007.6
20260831075223 21 167 0.0 0.0 0.00 0.00 0.00 93 1007.6
20260831074722 21 167 0.0 0.0 0.00 0.00 0.00 93 1007.7
20260831074222 21 163 0.0 0.0 0.00 0.00 0.00 93 1007.7
20260831073718 21 164 0.0 0.0 0.00 0.00 0.00 93 1007.7
20260831073217 21 164 0.0 0.0 0.00 0.00 0.00 93 1007.5
20260831072712 21 164 0.0 0.0 0.00 0.00 0.00 92 1007.7
20260831072208 22 166 0.0 0.0 0.00 0.00 0.00 92 1007.6
20260831071708 22 166 0.0 0.0 0.00 0.00 0.00 92 1007.8
20260831071203 22 165 0.0 0.0 0.00 0.00 0.00 92 1007.8
20260831070702 22 166 0.0 0.0 0.00 0.00 0.00 91 1007.8
20260831070157 22 167 0.0 0.0 0.00 0.00 0.00 91 1008.0
20260831065656 22 162 0.0 0.0 0.00 0.00 0.00 91 1007.9
20260831065155 22 150 0.0 0.0 0.00 0.00 0.00 91 1007.9
20260831064650 22 168 0.0 0.0 0.00 0.00 0.00 91 1008.2
20260831064145 22 162 0.0 3.2 0.00 0.00 0.00 91 1008.0
20260831063641 22 158 0.0 0.0 0.00 0.00 0.00 91 1008.2
20260831063136 22 156 1.6 3.2 0.00 0.00 0.00 91 1008.3
20260831062636 22 159 0.0 0.0 0.00 0.00 0.00 91 1008.3
20260831062136 22 158 0.0 0.0 0.00 0.00 0.00 90 1008.5
20260831061634 22 165 0.0 0.0 0.00 0.00 0.00 90 1008.4
20260831061130 22 170 0.0 0.0 0.00 0.00 0.00 90 1008.2
20260831060626 22 165 0.0 0.0 0.00 0.00 0.00 90 1008.4
20260831060121 22 165 0.0 0.0 0.00 0.00 0.00 90 1008.6
20260831055620 22 164 0.0 0.0 0.00 0.00 0.00 89 1008.5
20260831055116 22 165 0.0 0.0 0.00 0.00 0.00 89 1008.4
20260831054615 22 174 0.0 0.0 0.00 0.00 0.00 89 1008.5
20260831054115 22 166 0.0 0.0 0.00 0.00 0.00 89 1008.6
20260831053614 22 159 0.0 0.0 0.00 0.00 0.00 89 1008.7
20260831053114 22 162 0.0 0.0 0.00 0.00 0.00 90 1008.7
20260831052613 22 172 0.0 0.0 0.00 0.00 0.00 89 1008.8
20260831052112 22 174 0.0 3.2 0.00 0.00 0.00 89 1008.9
20260831051610 22 170 0.0 0.0 0.00 0.00 0.00 89 1009.0
20260831051110 22 171 0.0 0.0 0.00 0.00 0.00 89 1009.0
20260831050609 22 172 0.0 0.0 0.00 0.00 0.00 88 1009.4
20260831050108 22 160 0.0 0.0 0.00 0.00 0.00 88 1009.3
20260831045608 22 172 0.0 0.0 0.00 0.00 0.00 88 1009.3
20260831045103 23 164 0.0 0.0 0.00 0.00 0.00 87 1009.3
20260831044558 23 169 0.0 0.0 0.00 0.00 0.00 87 1009.4
20260831044054 23 171 0.0 0.0 0.00 0.00 0.00 86 1009.4
20260831043549 23 173 0.0 0.0 0.00 0.00 0.00 86 1009.3
20260831043044 23 163 0.0 0.0 0.00 0.00 0.00 86 1009.4
20260831042543 23 157 0.0 0.0 0.00 0.00 0.00 85 1009.3
20260831042039 23 153 0.0 0.0 0.00 0.00 0.00 85 1009.3
20260831041534 23 157 0.0 0.0 0.00 0.00 0.00 85 1009.4
20260831041033 23 170 0.0 3.2 0.00 0.00 0.00 85 1009.3
20260831040528 23 167 0.0 0.0 0.00 0.00 0.00 85 1009.3
20260831040027 23 199 1.6 3.2 0.00 0.00 0.00 85 1009.3
20260831035525 23 172 0.0 0.0 0.00 0.00 0.00 84 1009.3
20260831035020 23 157 0.0 0.0 0.00 0.00 0.00 84 1009.0
20260831034515 23 181 1.6 3.2 0.00 0.00 0.00 84 1009.0
20260831034010 23 168 1.6 3.2 0.00 0.00 0.00 83 1009.2
20260831033506 24 164 0.0 3.2 0.00 0.00 0.00 82 1009.2
20260831033001 24 149 3.2 4.8 0.00 0.00 0.00 82 1009.5
20260831032500 24 160 1.6 3.2 0.00 0.00 0.00 82 1009.3
20260831031956 24 192 4.8 4.8 0.00 0.00 0.00 82 1009.4
20260831031455 24 188 0.0 3.2 0.00 0.00 0.00 82 1009.3
20260831030955 24 180 0.0 3.2 0.00 0.00 0.00 81 1009.3
20260831030454 24 169 1.6 3.2 0.00 0.00 0.00 81 1009.0
20260831025953 24 120 4.8 4.8 0.00 0.00 0.00 80 1008.9
20260831025452 24 159 3.2 4.8 0.00 0.00 0.00 80 1008.8
20260831024948 25 169 0.0 3.2 0.00 0.00 0.00 80 1008.8
20260831024443 25 176 0.0 3.2 0.00 0.00 0.00 79 1009.0
20260831023942 25 97 8.0 8.0 0.00 0.00 0.00 79 1009.0
20260831023440 25 172 1.6 3.2 0.00 0.00 0.00 78 1009.2
20260831022936 25 150 6.4 8.0 0.00 0.00 0.00 78 1009.0
20260831022434 25 169 4.8 8.0 0.00 0.00 0.00 78 1008.9
20260831021930 25 161 0.0 0.0 0.00 0.00 0.00 77 1009.2
20260831021429 25 175 1.6 3.2 0.00 0.00 0.00 76 1009.0
20260831020925 25 184 3.2 4.8 0.00 0.00 0.00 76 1009.4
20260831020425 25 155 3.2 4.8 0.00 0.00 0.00 75 1009.4
20260831015920 25 184 3.2 3.2 0.00 0.00 0.00 75 1009.2
20260831015416 26 198 3.2 4.8 0.00 0.00 0.00 75 1009.0
20260831014911 26 172 0.0 3.2 0.00 0.00 0.00 74 1009.4
20260831014410 26 190 3.2 3.2 0.00 0.00 0.00 74 1009.3
20260831013907 26 151 6.4 11.3 0.00 0.00 0.00 73 1009.5
20260831013402 26 198 3.2 4.8 0.00 0.00 0.00 72 1009.3
20260831012856 26 175 1.6 3.2 0.00 0.00 0.00 71 1009.0
20260831012351 26 169 1.6 4.8 0.00 0.00 0.00 70 1009.2
20260831011851 26 180 0.0 3.2 0.00 0.00 0.00 69 1008.9
20260831011346 27 164 1.6 3.2 0.00 0.00 0.00 68 1008.8
20260831010842 27 209 3.2 4.8 0.00 0.00 0.00 67 1008.7
20260831010341 27 172 0.0 0.0 0.00 0.00 0.00 67 1008.8
20260831005838 27 105 6.4 11.3 0.00 0.00 0.00 66 1008.6
20260831005333 27 63 4.8 8.0 0.00 0.00 0.00 65 1008.4
20260831004827 28 91 3.2 3.2 0.00 0.00 0.00 65 1008.3
20260831004324 28 164 3.2 4.8 0.00 0.00 0.00 65 1008.5
20260831003820 28 183 3.2 3.2 0.00 0.00 0.00 67 1008.2
20260831003316 28 188 3.2 4.8 0.00 0.00 0.00 68 1008.4
20260831002815 28 161 0.0 3.2 0.00 0.00 0.00 69 1008.2
20260831002314 28 169 0.0 0.0 0.00 0.00 0.00 68 1008.0
20260831001810 28 174 3.2 3.2 0.00 0.00 0.00 68 1007.9
20260831001305 28 175 1.6 3.2 0.00 0.00 0.00 68 1007.7
20260831000803 28 169 0.0 0.0 0.00 0.00 0.00 67 1008.0
20260831000303 28 120 1.6 3.2 0.00 0.00 0.00 67 1008.1
20260830235801 29 188 3.2 4.8 0.00 0.00 0.00 66 1008.1
20260830235255 29 157 1.6 3.2 0.00 0.00 0.00 66 1008.0
20260830234751 29 160 3.2 4.8 0.00 0.00 0.00 66 1007.9
20260830234247 29 212 4.8 4.8 0.00 0.00 0.00 67 1008.0
20260830233742 29 169 3.2 3.2 0.00 0.00 0.00 67 1008.1
20260830233238 30 167 0.0 3.2 0.00 0.00 0.00 67 1008.0
20260830232733 30 190 3.2 4.8 0.00 0.00 0.00 66 1007.9
20260830232229 30 172 1.6 3.2 0.00 0.00 0.00 66 1007.9
20260830231725 30 172 3.2 3.2 0.00 0.00 0.00 67 1007.8
20260830231224 29 175 0.0 0.0 0.00 0.00 0.00 69 1008.0
20260830230719 29 181 3.2 3.2 0.00 0.00 0.00 70 1008.0
20260830230214 30 161 0.0 0.0 0.00 0.00 0.00 70 1008.3
20260830225709 30 174 1.6 3.2 0.00 0.00 0.00 69 1008.2
20260830225209 30 141 6.4 8.0 0.00 0.00 0.00 69 1007.9
20260830224708 30 82 3.2 8.0 0.00 0.00 0.00 69 1007.9
20260830224204 30 151 3.2 8.0 0.00 0.00 0.00 69 1007.8
20260830223701 30 167 1.6 3.2 0.00 0.00 0.00 69 1007.9
20260830223155 29 226 3.2 4.8 0.00 0.00 0.00 69 1008.0
20260830222650 30 166 3.2 4.8 0.00 0.00 0.00 69 1007.9
20260830222145 30 173 0.0 0.0 0.00 0.00 0.00 68 1007.8
20260830221641 30 185 3.2 4.8 0.00 0.00 0.00 67 1007.7
20260830221137 30 183 3.2 3.2 0.00 0.00 0.00 67 1008.2
20260830220632 30 37 3.2 4.8 0.00 0.00 0.00 67 1008.0
20260830220131 30 137 1.6 3.2 0.00 0.00 0.00 67 1007.9
20260830215631 30 162 1.6 3.2 0.00 0.00 0.00 68 1008.1
20260830215125 30 98 1.6 3.2 0.00 0.00 0.00 69 1008.1
20260830214620 30 168 1.6 4.8 0.00 0.00 0.00 68 1008.1
20260830214115 30 165 0.0 0.0 0.00 0.00 0.00 67 1008.1
20260830213614 30 167 9.7 11.3 0.00 0.00 0.00 67 1007.9
20260830213110 30 124 0.0 3.2 0.00 0.00 0.00 67 1008.1
20260830212606 30 78 3.2 8.0 0.00 0.00 0.00 68 1008.2
20260830212106 30 104 0.0 0.0 0.00 0.00 0.00 68 1008.2
20260830211601 30 87 3.2 3.2 0.00 0.00 0.00 68 1008.4
20260830211055 30 182 1.6 3.2 0.00 0.00 0.00 67 1008.5
20260830210550 30 175 0.0 0.0 0.00 0.00 0.00 66 1008.5
20260830210044 30 166 3.2 4.8 0.00 0.00 0.00 68 1008.6
20260830205542 30 175 1.6 3.2 0.00 0.00 0.00 67 1008.4
20260830205038 30 182 3.2 4.8 0.00 0.00 0.00 65 1008.5
20260830204537 30 166 0.0 0.0 0.00 0.00 0.00 65 1008.5
20260830204036 30 181 3.2 4.8 0.00 0.00 0.00 65 1008.6
20260830203532 29 167 3.2 3.2 0.00 0.00 0.00 69 1008.6
20260830203027 29 182 4.8 8.0 0.00 0.00 0.00 67 1008.9
20260830202527 30 193 3.2 4.8 0.00 0.00 0.00 67 1008.6
20260830202023 30 153 3.2 8.0 0.00 0.00 0.00 65 1008.9
20260830201522 30 179 1.6 3.2 0.00 0.00 0.00 66 1008.9
20260830201017 30 256 3.2 4.8 0.00 0.00 0.00 66 1008.7
20260830200512 30 106 3.2 3.2 0.00 0.00 0.00 65 1008.8
20260830200011 31 327 9.7 14.5 0.00 0.00 0.00 62 1008.7
20260830195507 31 182 1.6 3.2 0.00 0.00 0.00 61 1008.6
20260830195005 30 188 1.6 3.2 0.00 0.00 0.00 65 1008.6
20260830194504 30 181 3.2 4.8 0.00 0.00 0.00 64 1008.8
20260830194004 31 213 3.2 8.0 0.00 0.00 0.00 63 1008.7
20260830193503 30 89 3.2 3.2 0.00 0.00 0.00 65 1008.8
20260830192959 30 174 4.8 4.8 0.00 0.00 0.00 63 1008.8
20260830192455 30 55 6.4 11.3 0.00 0.00 0.00 64 1008.8
20260830191950 30 160 1.6 3.2 0.00 0.00 0.00 65 1008.9
20260830191449 30 159 1.6 3.2 0.00 0.00 0.00 66 1008.7
20260830190945 30 192 9.7 11.3 0.00 0.00 0.00 65 1009.0
20260830190440 30 98 4.8 11.3 0.00 0.00 0.00 67 1008.9
20260830185939 30 187 4.8 11.3 0.00 0.00 0.00 65 1009.4
20260830185434 29 330 6.4 14.5 0.00 0.00 0.00 68 1009.0
20260830184930 28 63 3.2 4.8 0.00 0.00 0.00 70 1008.8
20260830184429 27 334 4.8 4.8 0.00 0.00 0.00 71 1009.5
20260830183924 27 164 0.0 3.2 0.00 0.00 0.00 72 1009.7
20260830183423 28 79 6.4 11.3 0.00 0.00 0.00 71 1009.8
20260830182919 28 178 3.2 4.8 0.00 0.00 0.00 70 1009.8
20260830182415 27 161 1.6 3.2 0.00 0.00 0.00 73 1009.5
20260830181911 27 170 3.2 4.8 0.00 0.00 0.00 71 1009.7
20260830181406 27 190 3.2 3.2 0.00 0.00 0.00 72 1009.7
20260830180901 27 184 0.0 3.2 0.00 0.00 0.00 72 1009.8
20260830180400 27 104 6.4 8.0 0.00 0.00 0.00 73 1009.9
20260830175859 27 192 3.2 4.8 0.00 0.00 0.00 73 1009.8
20260830175359 27 160 3.2 3.2 0.00 0.00 0.00 74 1009.6
20260830174854 26 52 4.8 8.0 0.00 0.00 0.00 74 1009.9
20260830174350 26 179 3.2 3.2 0.00 0.00 0.00 76 1010.0
20260830173845 26 158 3.2 4.8 0.00 0.00 0.00 76 1010.2
20260830173340 26 143 3.2 3.2 0.00 0.00 0.00 76 1010.3
20260830172836 26 166 1.6 3.2 0.00 0.00 0.00 78 1010.4
20260830172332 25 164 0.0 0.0 0.00 0.00 0.00 78 1010.4
20260830171828 25 178 0.0 0.0 0.00 0.00 0.00 77 1010.3
20260830171324 26 128 1.6 3.2 0.00 0.00 0.00 77 1010.3
20260830170818 26 169 3.2 4.8 0.00 0.00 0.00 76 1010.2
20260830170318 26 76 3.2 4.8 0.00 0.00 0.00 76 1010.2
20260830165816 26 185 1.6 3.2 0.00 0.00 0.00 76 1010.2
20260830165312 26 162 0.0 3.2 0.00 0.00 0.00 77 1010.2
20260830164809 26 134 1.6 4.8 0.00 0.00 0.00 76 1010.3
20260830164259 25 86 6.4 8.0 0.00 0.00 0.00 77 1010.2
20260830163755 25 97 1.6 3.2 0.00 0.00 0.00 77 1010.2
20260830163251 25 190 3.2 4.8 0.00 0.00 0.00 77 1010.1
20260830162745 25 92 3.2 4.8 0.00 0.00 0.00 77 1009.9
20260830162242 25 140 0.0 3.2 0.00 0.00 0.00 78 1009.8
20260830161737 25 172 3.2 4.8 0.00 0.00 0.00 78 1009.7
20260830161236 25 113 0.0 3.2 0.00 0.00 0.00 78 1009.7
20260830160732 25 116 4.8 8.0 0.00 0.00 0.00 79 1009.7
20260830160231 25 92 3.2 4.8 0.00 0.00 0.00 78 1009.4
20260830155728 25 44 9.7 14.5 0.00 0.00 0.00 78 1009.3
20260830155223 25 170 0.0 0.0 0.00 0.00 0.00 78 1009.3
20260830154718 25 158 0.0 3.2 0.00 0.00 0.00 78 1009.7
20260830154214 25 143 1.6 3.2 0.00 0.00 0.00 79 1009.7
20260830153711 25 73 4.8 8.0 0.00 0.00 0.00 79 1009.6
20260830153206 25 219 3.2 4.8 0.00 0.00 0.00 79 1009.6
20260830152705 25 121 1.6 3.2 0.00 0.00 0.00 79 1009.6
20260830152204 25 163 1.6 4.8 0.00 0.00 0.00 77 1009.6
20260830151659 25 145 1.6 3.2 0.00 0.00 0.00 77 1009.7
20260830151159 26 82 3.2 4.8 0.00 0.00 0.00 76 1009.4
20260830150654 25 165 0.0 0.0 0.00 0.00 0.00 79 1009.6
20260830150148 25 198 1.6 3.2 0.00 0.00 0.00 79 1009.6
20260830145648 24 74 4.8 4.8 0.00 0.00 0.00 81 1009.5
20260830145143 23 183 3.2 8.0 0.00 0.00 0.00 82 1009.3
20260830144638 23 181 0.0 0.0 0.00 0.00 0.00 83 1009.4
20260830144134 23 163 3.2 4.8 0.00 0.00 0.00 82 1009.2
20260830143630 23 147 3.2 4.8 0.00 0.00 0.00 83 1009.3
20260830143127 23 74 0.0 3.2 0.00 0.00 0.00 85 1009.5
20260830142623 22 179 0.0 0.0 0.00 0.00 0.00 85 1009.4
20260830142118 22 162 3.2 3.2 0.00 0.00 0.00 86 1009.4
20260830141614 22 173 0.0 3.2 0.00 0.00 0.00 86 1009.5
20260830141109 22 97 3.2 3.2 0.00 0.00 0.00 86 1009.8
20260830140604 22 141 0.0 0.0 0.00 0.00 0.00 87 1009.9
20260830140058 22 359 9.7 14.5 0.00 0.00 0.00 86 1010.2
20260830135553 22 134 1.6 3.2 0.00 0.00 0.00 86 1010.2
20260830135048 22 171 3.2 4.8 0.00 0.00 0.00 87 1010.1
20260830134544 21 358 1.6 4.8 0.00 0.00 0.00 88 1010.1
20260830134044 21 174 0.0 3.2 0.00 0.00 0.00 88 1009.8
20260830133545 21 171 1.6 3.2 0.00 0.00 0.00 89 1009.8
20260830133040 21 169 0.0 3.2 0.00 0.00 0.00 89 1009.7
20260830132536 21 161 0.0 0.0 0.00 0.00 0.00 90 1009.7
20260830132031 21 157 0.0 0.0 0.00 0.00 0.00 90 1009.9
20260830131529 21 170 3.2 3.2 0.00 0.00 0.00 90 1009.7
20260830131025 21 169 0.0 3.2 0.00 0.00 0.00 90 1009.6
20260830130520 21 130 0.0 0.0 0.00 0.00 0.00 91 1009.7
20260830130016 21 168 0.0 0.0 0.00 0.00 0.00 91 1009.7
20260830125510 21 167 1.6 3.2 0.00 0.00 0.00 91 1009.6
20260830125009 21 155 0.0 3.2 0.00 0.00 0.00 91 1009.7
20260830124508 20 143 0.0 0.0 0.00 0.00 0.00 91 1009.6
20260830124004 20 162 0.0 3.2 0.00 0.00 0.00 92 1009.7
20260830123501 20 167 0.0 0.0 0.00 0.00 0.00 92 1009.6
20260830123000 20 148 0.0 0.0 0.00 0.00 0.00 92 1009.6
20260830122458 20 170 0.0 3.2 0.00 0.00 0.00 93 1009.7
20260830121953 20 155 0.0 0.0 0.00 0.00 0.00 93 1009.8
20260830121449 20 141 0.0 0.0 0.00 0.00 0.00 93 1009.6
20260830120949 20 144 0.0 3.2 0.00 0.00 0.00 94 1009.6
20260830120444 20 158 0.0 0.0 0.00 0.00 0.00 94 1009.6
20260830115941 20 163 0.0 0.0 0.00 0.00 0.00 94 1009.4
20260830115437 20 161 0.0 0.0 0.00 0.00 0.00 94 1009.3
20260830114932 20 164 0.0 0.0 0.00 0.00 0.00 94 1009.4
20260830114429 20 162 0.0 0.0 0.00 0.00 0.00 93 1009.3
20260830113928 20 165 0.0 0.0 0.00 0.00 0.00 93 1009.0
20260830113423 20 162 0.0 0.0 0.00 0.00 0.00 93 1009.0
20260830112919 20 160 0.0 0.0 0.00 0.00 0.00 93 1009.0
20260830112415 20 163 0.0 0.0 0.00 0.00 0.00 93 1009.0
20260830111911 20 196 0.0 0.0 0.00 0.00 0.00 93 1009.4
20260830111406 20 157 0.0 0.0 0.00 0.00 0.00 93 1009.3
20260830110901 20 154 0.0 0.0 0.00 0.00 0.00 93 1009.5
20260830110357 20 132 0.0 3.2 0.00 0.00 0.00 93 1009.4
20260830105855 20 151 0.0 0.0 0.00 0.00 0.00 94 1009.5
20260830105353 20 167 0.0 0.0 0.00 0.00 0.00 93 1009.6
20260830104848 20 159 0.0 0.0 0.00 0.00 0.00 93 1009.7
20260830104345 20 159 0.0 0.0 0.00 0.00 0.00 93 1009.6
20260830103844 20 165 0.0 0.0 0.00 0.00 0.00 93 1009.7
20260830103340 20 160 0.0 0.0 0.00 0.00 0.00 93 1009.6
20260830102838 20 159 0.0 0.0 0.00 0.00 0.00 93 1009.5
20260830102334 20 161 0.0 0.0 0.00 0.00 0.00 93 1009.8
20260830101830 20 167 0.0 0.0 0.00 0.00 0.00 92 1009.9
20260830101325 20 169 0.0 0.0 0.00 0.00 0.00 92 1009.9
20260830100824 20 167 0.0 0.0 0.00 0.00 0.00 92 1009.7
20260830100319 20 169 0.0 0.0 0.00 0.00 0.00 92 1009.5
20260830095817 20 166 0.0 0.0 0.00 0.00 0.00 91 1009.5
20260830095314 20 171 0.0 0.0 0.00 0.00 0.00 91 1009.4
20260830094809 20 162 0.0 0.0 0.00 0.00 0.00 91 1009.2
20260830094306 20 166 0.0 0.0 0.00 0.00 0.00 91 1009.3
20260830093801 20 166 0.0 0.0 0.00 0.00 0.00 92 1009.0
20260830093256 20 164 0.0 0.0 0.00 0.00 0.00 92 1009.2
20260830092756 20 157 0.0 0.0 0.00 0.00 0.00 92 1009.3
20260830092253 20 162 1.6 3.2 0.00 0.00 0.00 92 1009.5
20260830091749 20 159 0.0 0.0 0.00 0.00 0.00 92 1009.4
20260830091248 20 142 0.0 0.0 0.00 0.00 0.00 91 1009.5
20260830090748 20 161 0.0 0.0 0.00 0.00 0.00 91 1009.5
20260830090243 20 159 0.0 0.0 0.00 0.00 0.00 92 1009.5
20260830085742 20 172 1.6 3.2 0.00 0.00 0.00 92 1009.6
20260830085238 20 162 0.0 0.0 0.00 0.00 0.00 92 1009.4
20260830084734 20 158 0.0 0.0 0.00 0.00 0.00 92 1009.3
20260830084229 20 161 0.0 0.0 0.00 0.00 0.00 91 1009.6
20260830083724 20 163 0.0 0.0 0.00 0.00 0.00 91 1009.6
20260830083220 20 163 0.0 0.0 0.00 0.00 0.00 91 1009.6
20260830082719 20 163 0.0 0.0 0.00 0.00 0.00 91 1009.6
20260830082215 20 160 0.0 0.0 0.00 0.00 0.00 90 1009.7
20260830081710 20 159 0.0 0.0 0.00 0.00 0.00 90 1009.5
20260830081210 20 167 0.0 0.0 0.00 0.00 0.00 90 1009.5
20260830080709 20 140 0.0 0.0 0.00 0.00 0.00 90 1009.3
20260830080206 20 154 0.0 0.0 0.00 0.00 0.00 90 1009.3